Weather History for KHGR - February, 2013

Change the Weather History Date:

Tuesday, February 19, 2013

  Actual Average Record
Temperature  
Mean Temperature 38 °F 34 °F  
Max Temperature 47 °F 42 °F 64 °F (1997)
Min Temperature 29 °F 26 °F 3 °F (2015)
Degree Days  
Heating Degree Days 27 31  
Month to date heating degree days 622 612  
Since 1 July heating degree days 3362 3636  
Cooling Degree Days 0 0  
Month to date cooling degree days 0 0  
Year to date cooling degree days 0 0  
Moisture  
Dew Point 27 °F    
Average Humidity 70    
Maximum Humidity 96    
Minimum Humidity 44    
Precipitation  
Precipitation 0.05 in 0.10 in 0.20 in (2014)
Month to date precipitation 0.47 1.76  
Year to date precipitation 3.45 4.44  
Sea Level Pressure  
Sea Level Pressure 29.89 in    
Wind  
Wind Speed 10 mph (South)    
Max Wind Speed 18 mph    
Max Gust Speed 23 mph    
Visibility 7 miles    
Events Fog , Rain , Snow    
T = Trace of Precipitation, MM = Missing Value Source: NWS Daily Summary

Daily Weather History Graph

Daily Weather History Graph

Search for Another Location

Airport or City:

Trip Planner

Search our weather history database for the weather conditions in past years. The results will help you decide how hot, cold, wet, or windy it might be!

Date:

Astronomy

Feb. 19, 2013 Rise Set
Actual Time 6:57 AM EST 5:52 PM EST
Civil Twilight 6:30 AM EST 6:19 PM EST
Nautical Twilight 5:59 AM EST 6:51 PM EST
Astronomical Twilight 5:27 AM EST 7:22 PM EST
Moon 12:22 PM EST (2/19) 2:27 AM EST (2/19)
Length of Visible Light 11h 49m
Length of Day
10h 54m
Waxing Gibbous, 67% of the Moon is Illuminated
Feb 19
Waxing Gibbous
Feb 25
Full
Mar 4
Last Quarter
Mar 11
New
Mar 19
First Quarter

Hourly Weather History & Observations

Time (EST) Temp. Windchill Dew Point Humidity Pressure Visibility Wind Dir Wind Speed Gust Speed Precip Events Conditions
12:53 AM 37.0 °F 31.0 °F 17.1 °F 44% 30.10 in 10.0 mi SSE 8.1 mph - N/A   Clear
1:53 AM 35.1 °F - 17.1 °F 48% 30.09 in 10.0 mi Calm Calm - N/A   Clear
2:53 AM 33.1 °F 26.9 °F 19.0 °F 56% 30.06 in 10.0 mi SSE 6.9 mph - N/A   Clear
3:53 AM 32.0 °F - 18.0 °F 56% 30.02 in 10.0 mi Calm Calm - N/A   Clear
4:53 AM 35.1 °F 28.6 °F 21.0 °F 57% 29.99 in 10.0 mi SSE 8.1 mph - N/A   Clear
5:53 AM 37.0 °F 29.3 °F 21.0 °F 52% 29.98 in 10.0 mi SSE 11.5 mph - N/A   Clear
6:53 AM 37.0 °F 28.5 °F 21.0 °F 52% 29.95 in 10.0 mi SSE 13.8 mph 19.6 mph N/A   Overcast
7:53 AM 37.0 °F 29.3 °F 21.9 °F 54% 29.94 in 10.0 mi SSE 11.5 mph - N/A   Overcast
8:44 AM 35.6 °F 28.0 °F 26.6 °F 70% 29.89 in 2.5 mi SSE 10.4 mph 19.6 mph 0.00 in Snow Light Snow
8:53 AM 35.1 °F 26.4 °F 27.0 °F 72% 29.93 in 2.5 mi SSE 12.7 mph - 0.00 in Snow Light Snow
9:00 AM 35.6 °F 28.0 °F 28.4 °F 75% 29.89 in 3.0 mi SSE 10.4 mph - 0.01 in Rain Light Rain
9:17 AM 33.8 °F 23.9 °F 28.4 °F 81% 29.88 in 1.0 mi SSE 15.0 mph 20.7 mph 0.01 in Snow Light Snow
9:30 AM 33.8 °F 24.3 °F 30.2 °F 87% 29.88 in 0.5 mi SSE 13.8 mph - 0.01 in Fog , Snow Light Snow
9:40 AM 33.8 °F 25.8 °F 30.2 °F 87% 29.87 in 0.2 mi SSE 10.4 mph - 0.02 in Fog , Snow Snow
9:53 AM 33.1 °F 23.0 °F 32.0 °F 96% 29.92 in 0.2 mi SSE 15.0 mph - 0.03 in Fog , Snow Light Snow
10:00 AM 33.8 °F 24.8 °F 32.0 °F 93% 29.87 in 1.5 mi SSE 12.7 mph - 0.00 in Snow Light Snow
10:15 AM 33.8 °F 24.3 °F 32.0 °F 93% 29.86 in 3.0 mi SSE 13.8 mph - 0.00 in Snow Light Snow
10:53 AM 35.1 °F 25.9 °F 32.0 °F 89% 29.89 in 10.0 mi SSE 13.8 mph - 0.00 in   Overcast
2:53 PM 46.0 °F 39.6 °F 39.0 °F 76% 29.69 in 10.0 mi SSE 15.0 mph - N/A   Scattered Clouds
3:53 PM 45.0 °F 38.9 °F 37.9 °F 76% 29.69 in 10.0 mi SSE 12.7 mph - 0.00 in Rain Light Rain
4:05 PM 41.0 °F 32.2 °F 37.4 °F 87% 29.70 in 1.8 mi West 18.4 mph 33.4 mph 0.08 in Rain Heavy Rain
4:12 PM 39.2 °F 33.6 °F 35.6 °F 87% 29.70 in 3.0 mi WNW 8.1 mph - 0.08 in Rain Light Rain
4:53 PM 45.0 °F 37.6 °F 36.0 °F 71% 29.74 in 10.0 mi West 17.3 mph 24.2 mph 0.08 in   Partly Cloudy
5:53 PM 42.1 °F 33.3 °F 28.0 °F 58% 29.78 in 10.0 mi WNW 19.6 mph 32.2 mph N/A   Partly Cloudy
7:53 PM 37.9 °F 28.5 °F 24.1 °F 57% 29.84 in 10.0 mi WNW 17.3 mph - N/A   Clear
8:53 PM 37.0 °F 27.7 °F 24.1 °F 59% 29.86 in 10.0 mi West 16.1 mph 33.4 mph N/A   Scattered Clouds
9:53 PM 36.0 °F 24.7 °F 21.0 °F 55% 29.88 in 10.0 mi West 21.9 mph 31.1 mph N/A   Scattered Clouds
10:53 PM 34.0 °F 24.2 °F 21.0 °F 59% 29.89 in 10.0 mi West 15.0 mph 25.3 mph N/A   Scattered Clouds
11:53 PM 33.1 °F 22.6 °F 21.0 °F 61% 29.89 in 10.0 mi WNW 16.1 mph 24.2 mph N/A   Overcast